CYGFM02 (41886 NORAD) Tracking and Keplerian Element Data

This shows tracking and keplerian element data for the satellite.

Feedback or suggestion? Click here.




ElementValue
Catalog41886
NameCYGFM02
Epoch Orbit26456
Epoch Day267.78471947
Epoch Year2021
RAAN47.3444
Inclination34.9595
Eccentricity0.00154
Argument of Perigee245.1617
Mean Anonmoly114.7494
Mean Motion15.15666336
Decay Rate1.115E-05
L11 41886U 16078C 21267.78471947 .00001115 00000-0 58815-4 0 9993
L22 41886 34.9595 47.3444 0015400 245.1617 114.7494 15.15666336264561

Live tracking and technical data element details for CYGFM02 (NORAD 41886). CYGFM02 can be tracked NOW for your location showing map with azimuth and elevation plus other details from your city location.

Track the satellite on the map from your city or location and see movement details for azimuth, elevation, latitude, longitude, range, height, and movement on the map or in text.







IsCatalogInMostPopularTable: catalog: 41886, numindb: 608
Update: records affected: 1



GetName: 41886 CYGFM02

Hit Count: updated at: Mon, 27 Sep 2021 01:55:03 GMT